Погода в Верховье

Россия / Калужская область     54°58′13″N   36°29′45″E
темп.,
°C
ветер,
м/с
пор.,
м/с
влажн.,
%
обл.,
%
осадки,
мм/ч
давл.,
гПа
погр.,
м
27 июля, вт
вт2700:00+17ююз227977 0.1 102117
03:00+17зюз22819 0.1 102226
06:00+17сз01881 0.1 102116
09:00+23ю116547 0.4 1021388
12:00+28з12440 0.0 10201496
15:00+28зсз133649 0.0 10182700
18:00+20з3677100 0.3 1019170
21:00+18ююв228318 1.1 101814
28 июля, ср
ср2800:00+16ююз1189100 0.0 101811
03:00+16ю229182 0.6 101715
06:00+17ююв2291100 0.0 101647
09:00+18ююв2386100 0.0 101564
12:00+20ю2680100 0.0 1015276
15:00+17ююв41293100 1.5 1014606
18:00+17ююв31093100 1.0 1011494
21:00+17ю41096100 1.9 1009482
29 июля, чт
чт2900:00+17зюз389956 0.2 1008363
03:00+16зюз389992 0.2 1008287
06:00+16з399934 0.0 1008310
09:00+20зсз4683100 0.0 1008655
12:00+25зсз4755100 0.0 10071306
15:00+27зсз4642100 0.0 10072389
18:00+26зсз3554100 0.0 10071003
21:00+20юз227313 0.0 100711
30 июля, пт
пт3000:00+19зюз267764 0.2 1007151
03:00+16зюз24920 0.2 100875
06:00+17зюз24905 0.0 1008110
09:00+23зюз34640 0.0 1008534
12:00+27зюз34494 0.0 10071617
15:00+24зсз3666100 0.1 1007185
18:00+25з4758100 0.0 1007859
21:00+21зюз117080 0.0 100715
31 июля, сб
сб3100:00+17юз378521 0.0 1007121
03:00+17ююз397352 0.0 1007186
06:00+18юз41073100 0.1 1007336
09:00+19зюз4978100 0.2 1007461
12:00+23ююз47601 0.1 10061113
15:00+26зюз6105198 0.3 10041941
18:00+25зюз585636 0.1 10051476
21:00+19зюз23815 0.3 100657